Location: Long Sault Conservation Area
(44.0496°N, 78.7419°W)
Time: 05:48:29
(UTC-04:00)

Daily predictions for brighter satellites

Satellite Brightness Start Highest point End
(mag) Time Altitude Azimuth Time Altitude Azimuth Time Altitude Azimuth
Cosmos 1892 3.9 00:03:35 29° E 00:03:35 29° E 00:06:38 10° NNE
CZ-4B R/B 3.2 00:03:32 22° ENE 00:03:41 22° ENE 00:06:23 10° NNE
Cosmos 44 Rocket 3.3 00:03:45 37° SSW 00:05:49 78° ESE 00:11:06 10° NE
Cosmos 389 Rocket 2.4 00:03:05 10° NNW 00:06:40 76° W 00:06:44 76° WSW
NOSS 2-3 (D) 3.9 00:05:33 35° SSW 00:07:45 82° SE 00:13:30 10° NE
Okean 1-7 3.1 00:07:13 10° NNW 00:11:29 69° W 00:12:15 55° SSW
Cosmos 158 Rocket 3.9 00:06:38 10° NNW 00:11:57 89° ENE 00:13:25 49° SSE
Terra 3.5 00:09:58 19° SW 00:12:00 25° W 00:15:54 10° NW
In-Cosmos 22 Rocket 4.2 00:11:14 42° S 00:13:18 80° E 00:19:07 10° NNE
ALOS 2 3.2 00:13:37 39° ESE 00:14:31 44° ENE 00:18:42 10° N
GEOS 3 Rocket 4.2 00:13:51 26° ESE 00:16:35 51° NE 00:21:36 10° NNW
Uosat 12 SS-18 rocket 4.3 00:16:27 54° SSE 00:17:08 61° ESE 00:21:33 10° NE
Coronas F rocket 3.9 00:19:36 15° NE 00:19:36 15° NE 00:20:24 10° NE
Meteor 2-3 Rocket 3.7 00:17:03 43° S 00:19:02 81° E 00:24:46 10° NNE
Cosmos 372 Rocket 4.1 00:17:21 34° SW 00:19:37 73° WNW 00:24:52 10° NNE
SL-08 ROCKET BODY 4.4 00:23:36 42° S 00:25:49 78° E 00:31:59 10° N
Meteor 2-10 Rocket 3.8 00:21:08 10° N 00:26:46 72° ENE 00:28:33 45° SSE
Tiangong 1 3.9 00:24:17 10° W 00:24:22 11° W 00:24:22 11° W
Cosmos 2084 Rocket 3.0 00:28:50 81° ENE 00:28:50 81° ENE 00:32:31 10° NE
Cosmos 2263 Rocket 3.7 00:29:49 21° ESE 00:30:13 21° E 00:34:22 10° NE
Cosmos 2227 Rocket 4.3 00:25:53 10° WSW 00:30:25 24° NW 00:35:00 10° N
Meteor 1-10 Rocket 4.5 00:25:30 10° N 00:31:26 64° ENE 00:33:23 42° SE
ATLAS 2AS CENTAUR R/B 4.0 00:28:33 10° WSW 00:35:55 47° NW 00:43:42 10° NNE
Cosmos 921 Rocket 3.5 00:37:04 44° E 00:37:04 44° E 00:40:53 10° NNE
Lacrosse 4 Rocket 3.2 00:36:29 10° WNW 00:39:53 21° WSW 00:40:03 21° WSW
Cosmos 1356 Rocket 3.5 00:40:30 57° E 00:40:30 57° E 00:44:28 10° NNE
Cosmos 1674 Rocket 3.6 00:37:31 10° N 00:41:57 67° E 00:42:28 61° ESE
Cosmos 1607 3.8 00:37:21 10° NW 00:43:32 90° NNE 00:45:42 43° SSE
Aureole 2 Rocket 3.7 00:41:34 10° NW 00:43:52 32° WNW 00:43:52 32° WNW
ATLAS 3B R/B 3.6 00:38:54 10° NW 00:44:49 31° WSW 00:46:35 27° SW
SL-16 R/B 3.5 00:40:11 10° NW 00:44:50 26° WSW 00:46:17 24° SW
Cosmos 2074 Rocket 4.3 00:45:00 34° SSW 00:47:44 63° W 00:54:00 10° N
Nadezhda 3 Rocket 4.0 00:41:58 10° N 00:48:13 72° E 00:50:20 43° SSE
Cosmos 1610 Rocket 4.4 00:46:43 44° S 00:48:50 87° W 00:55:00 10° N
CZ-2C R/B 3.5 00:44:41 10° NNE 00:49:21 33° E 00:50:05 31° ESE
CZ-4C R/B 3.5 00:49:56 54° WNW 00:49:56 54° WNW 00:53:09 10° NNW
Cosmos 2227 4.3 00:49:13 38° SW 00:51:27 73° WNW 00:57:10 10° NNE
Cosmos 1689 Rocket 2.9 00:52:09 58° N 00:52:09 58° N 00:54:52 10° NNW
Cosmos 1975 Rocket 4.3 00:50:01 10° NNE 00:53:51 29° ENE 00:54:40 27° E
Cosmos 2297 Rocket 4.4 00:52:53 10° W 00:57:11 22° NW 01:01:29 10° N
Cosmos 1782 2.7 00:55:10 10° N 00:59:07 85° WNW 00:59:07 85° WNW
Cosmos 44 3.5 00:57:48 46° SW 00:59:28 85° NW 01:04:58 10° NNE
COSMOS 2455 4.4 00:55:39 10° WNW 00:59:49 20° WSW 01:01:03 18° WSW
USA 238 DEB 4.0 00:53:19 10° NW 01:00:06 52° WSW 01:02:06 41° SSW
USA 238 4.0 00:53:25 10° NW 01:00:12 53° WSW 01:02:13 41° SSW
Cosmos 1908 Rocket 3.7 01:02:05 56° ESE 01:02:15 57° E 01:06:31 10° NNE
Cosmos 1340 Rocket 3.3 01:05:03 47° W 01:05:16 48° WNW 01:09:06 10° N
Cosmos 1943 3.2 01:00:42 10° NNW 01:06:25 80° ENE 01:08:08 47° SE
Okean 3 4.0 01:04:10 10° N 01:08:21 47° ENE 01:08:50 45° E
BREEZE-M DEB (TANK) 2.3 01:02:01 10° WNW 01:09:06 78° SW 01:09:06 78° SW
Geosat 4.3 01:04:15 10° NE 01:09:08 49° ESE 01:09:37 48° SE
Landsat 5 3.7 01:10:53 61° SW 01:11:15 64° W 01:15:48 10° NNW
Cosmos 1238 Rocket 2.8 01:13:34 10° N 01:16:55 65° N 01:16:55 65° N
CENTAUR R/B 4.4 01:10:41 10° NNW 01:17:35 36° NE 01:24:57 10° ESE
H-2A R/B 3.2 01:13:56 10° N 01:18:02 48° WNW 01:18:48 42° WSW
Cosmos 2251 Rocket 4.5 01:14:10 10° NW 01:18:52 32° W 01:19:34 31° WSW
Cosmos 1603 4.5 01:14:05 10° NW 01:19:14 36° WSW 01:20:06 34° SW
Cosmos 2154 Rocket 4.1 01:17:41 42° SSW 01:19:54 72° W 01:26:11 10° N
Cosmos 1606 2.7 01:17:55 10° N 01:21:35 76° NW 01:21:35 76° NW
SeaSat 1 3.5 01:23:17 30° WSW 01:23:26 30° WSW 01:27:46 10° NW
Meteor 1-27 Rocket 3.7 01:18:40 10° NNW 01:24:32 81° W 01:26:02 51° S
Helios 1A Rocket 2.9 01:22:19 10° N 01:26:30 72° WNW 01:26:47 68° WSW
ASTEX 1 4.3 01:24:30 10° N 01:28:59 38° WNW 01:30:16 32° WSW
CZ-4C R/B 2.9 01:23:48 10° NW 01:30:49 64° WSW 01:33:37 40° S
Cosmos 1733 Rocket 4.3 01:30:38 29° W 01:31:34 32° WNW 01:35:34 10° N
RESURS DK-1 3.0 01:32:36 42° E 01:32:36 42° E 01:36:14 10° NE
Cosmos 1184 Rocket 4.5 01:33:17 27° ENE 01:33:17 27° ENE 01:35:38 10° NNE
Cosmos 1408 2.7 01:33:18 73° NE 01:33:18 73° NE 01:36:48 10° N
NOSS 3-2 (C) 3.9 01:26:23 10° NW 01:33:54 83° SW 01:38:05 32° SSE
CZ-4B R/B 3.5 01:37:17 20° WNW 01:37:17 20° WNW 01:39:11 10° NW
Sich 1 Rocket 4.4 01:41:10 38° WSW 01:41:53 41° WNW 01:46:12 10° N
Cosmos 1378 Rocket 3.7 01:37:42 10° NNW 01:41:59 55° W 01:42:09 55° WSW
Meteor 2-13 Rocket 4.4 01:40:08 47° S 01:42:03 89° W 01:48:15 10° N
Cosmos 1867 3.5 01:38:37 10° NW 01:44:06 76° WSW 01:45:23 53° SSE
Cosmos 1862 3.5 01:46:07 57° W 01:46:12 57° W 01:50:12 10° N
CZ-2C R/B 3.2 01:47:42 47° SSE 01:49:29 90° WSW 01:55:04 10° NNW
Coronas F rocket 4.4 01:50:42 10° WNW 01:50:42 10° WNW 01:50:48 10° NW
ALOS 2 4.5 01:51:00 18° W 01:51:03 18° W 01:54:07 10° NW
Cosmos 1959 Rocket 4.4 01:53:04 45° S 01:55:11 86° E 02:01:26 10° N
NOSS 3-2 (A) 4.1 01:48:09 10° NW 01:55:27 55° WSW 01:58:20 38° S
BREEZE-M DEB (TANK) 3.9 01:54:13 10° WNW 01:57:04 44° N 02:05:03 10° ENE
Cosmos 1825 2.7 01:57:17 49° WNW 01:57:17 49° WNW 02:00:56 10° N
NOSS 3-4 (A) 3.6 01:54:26 34° SW 01:57:25 76° NW 02:04:03 10° NE
NOSS 3-4 (C) 3.6 01:54:33 35° SW 01:57:30 76° NW 02:04:09 10° NE
SL-08 R/B 4.4 01:57:58 44° S 02:00:08 90° NW 02:06:30 10° N
PSLV R/B 3.7 02:00:11 79° SSW 02:00:23 83° WSW 02:04:29 10° NNW
SL-8 Rocket 4.1 02:00:20 42° SSW 02:02:35 71° W 02:08:55 10° N
Meteor 2-8 Rocket 4.5 01:57:37 10° N 02:03:44 75° E 02:06:14 38° SSE
BREEZE-M DEB (TANK) 4.2 01:50:15 10° WNW 02:03:47 61° SW 02:05:38 39° SSE
Cosmos 1242 Rocket 2.6 02:02:19 10° N 02:05:38 67° NE 02:05:38 67° NE
Cosmos 1339 Rocket 4.5 02:02:15 10° N 02:08:20 74° E 02:10:55 36° SSE
Cosmos 1844 Rocket 3.9 02:08:12 25° SE 02:09:55 30° ESE 02:14:48 10° NE
Cosmos 1812 4.1 02:07:34 10° N 02:11:07 33° ENE 02:12:12 28° ESE
Cosmos 1782 Rocket 4.2 02:10:41 40° W 02:11:18 43° WNW 02:15:31 10° N
Gbstr 26 Del rocket 4.1 02:13:29 27° ESE 02:13:29 27° ESE 02:15:58 10° ENE
Cosmos 2263 Rocket 2.5 02:11:29 36° SW 02:13:39 60° WNW 02:19:17 10° NNE
Okean 2 Rocket 3.6 02:15:39 42° WSW 02:16:23 46° WNW 02:20:45 10° N
Cosmos 2218 Rocket 4.1 02:14:09 40° SSW 02:16:28 67° W 02:22:50 10° N
Cosmos 1190 Rocket 3.9 02:16:34 10° NNW 02:21:49 88° WSW 02:23:36 43° SSE
ATLAS 5 CENTAUR R/B 3.9 02:21:39 10° NNW 02:27:00 35° NE 02:32:42 10° ESE
Cosmos 2366 rocket 4.1 02:24:58 38° SW 02:27:17 63° W 02:33:28 10° N
CZ-2C R/B 3.7 02:24:58 10° N 02:29:36 33° WNW 02:31:36 25° WSW
Cosmos 1300 Rocket 4.3 02:29:48 35° SE 02:31:01 44° E 02:35:11 10° NNE
Cosmos 1975 Rocket 4.4 02:28:02 10° NNW 02:31:36 25° W 02:31:48 25° W
Abrixas rocket 2.8 02:31:35 52° NW 02:32:00 57° NNW 02:35:20 10° ENE
SL-08 R/B 4.4 02:29:13 18° SE 02:32:28 42° ENE 02:37:04 10° N
Cosmos 1371 Rocket 4.5 02:31:53 36° WSW 02:33:49 54° WNW 02:39:05 10° NNE
Cosmos 407 Rocket 3.4 02:29:22 10° NNW 02:34:32 85° WSW 02:36:33 39° SSE
Cosmos 2056 Rocket 3.6 02:32:51 42° SW 02:34:35 70° WNW 02:39:49 10° NNE
Cosmos 2278 Rocket 3.7 02:36:48 19° SE 02:39:27 26° ESE 02:44:06 10° NE
Cosmos 724 4.3 02:34:29 10° NW 02:40:37 79° WSW 02:44:32 24° SSE
Cosmos 1536 Rocket 3.7 02:39:29 10° NNW 02:43:47 58° W 02:44:34 49° SW
NOSS 2-2 (E) 4.5 02:43:13 32° SE 02:44:06 35° ESE 02:48:29 10° NE
COSMOS 2406 3.2 02:38:32 10° NNW 02:44:17 69° WSW 02:46:47 34° S
Cosmos 676 Rocket 3.9 02:40:58 10° NNW 02:46:12 89° WSW 02:48:42 31° SSE
Cosmos 1727 Rocket 4.5 02:43:38 10° NNW 02:49:30 45° W 02:51:46 32° SW
Okean 1 3.2 02:45:36 10° N 02:49:38 83° E 02:50:40 49° SSE
Cosmos 1461 4.3 02:50:09 27° SSE 02:51:31 32° ESE 02:55:37 10° NE
USA 161 4.4 02:49:46 10° ESE 02:51:33 15° ENE 02:53:23 10° NNE
SL-27 R/B 2.6 02:51:10 10° NNW 02:54:46 56° WSW 02:54:52 56° WSW
Iridium 4 Rocket 3.7 02:50:56 10° NNW 02:55:35 53° W 02:57:15 37° SW
Meteor 1-25 Rocket 4.3 02:57:03 35° SSW 02:59:32 69° WNW 03:05:21 10° N
Landsat 4 3.7 03:01:34 52° SW 03:02:10 61° WSW 03:05:57 10° NNW
Cosmos 1602 4.5 03:03:09 30° SE 03:04:36 45° E 03:08:18 10° NNE
USA 234 3.2 02:58:53 10° SE 03:05:25 89° NE 03:12:01 10° NW
CENTAUR R/B 3.0 03:01:12 10° NW 03:09:01 75° WSW 03:17:17 10° SSE
NPP 3.6 03:04:52 10° NNE 03:10:17 83° ESE 03:13:05 30° S
RESURS DK-1 4.4 03:08:31 15° W 03:10:33 20° NW 03:13:42 10° N
Cosmos 1954 Rocket 3.9 03:05:59 10° NNW 03:11:09 71° WSW 03:13:58 27° S
Cosmos 1934 Rocket 4.1 03:08:09 25° S 03:11:57 76° E 03:18:06 10° N
PSLV R/B 4.4 03:12:55 10° N 03:16:49 38° WNW 03:18:15 29° WSW
Okean 1 Rocket 3.2 03:16:19 36° SSW 03:17:58 64° W 03:22:27 10° N
Okean 1-7 Rocket 3.8 03:18:04 10° NNW 03:22:33 55° W 03:24:25 32° SSW
CZ-2D R/B 3.7 03:19:04 10° NE 03:23:50 30° E 03:28:37 10° SSE
ERS-2 2.1 03:22:52 10° NNE 03:26:37 85° W 03:28:00 37° SSW
Cosmos 1025 Rocket 3.0 03:26:00 10° N 03:30:20 85° E 03:33:09 21° S
Timation 2 Rocket 4.2 03:25:05 10° NNW 03:31:15 69° ENE 03:37:13 10° SE
Meteor 2-14 Rocket 4.4 03:27:36 23° S 03:31:36 90° WSW 03:37:43 10° N
Cosmos 1023 Rocket 4.4 03:29:00 10° NNW 03:34:04 66° WSW 03:37:49 18° S
Cosmos 1833 Rocket 4.4 03:29:00 10° N 03:34:05 33° NE 03:39:07 10° ESE
Okean O Rocket 4.2 03:35:10 10° ENE 03:37:22 14° E 03:39:33 10° ESE
ARIANE 5 R/B 3.1 03:34:01 10° NNE 03:38:55 52° E 03:42:54 15° S
Meteor 2-15 4.4 03:33:46 10° NNW 03:39:56 76° W 03:45:04 15° S
Cosmos 1455 Rocket 4.1 03:36:21 13° SSE 03:39:59 43° E 03:44:12 10° NNE
Cosmos 1452 Rocket 4.2 03:37:27 23° WSW 03:40:23 44° WNW 03:45:25 10° N
IRS-1C 4.1 03:35:54 10° N 03:41:16 77° WNW 03:44:44 22° SSW
Meteor 2-21 Rocket 4.5 03:37:34 23° SSW 03:41:27 67° W 03:47:33 10° N
Cosmos 1812 4.4 03:44:06 10° NW 03:46:45 18° W 03:47:22 17° W
GP-B 3.9 03:42:42 10° NNW 03:46:46 35° W 03:48:48 23° SW
Cosmos 1420 Rocket 4.1 03:45:14 23° SSW 03:48:32 70° WNW 03:53:50 10° NNE
CBERS-1 4.4 03:44:33 10° N 03:49:34 52° WNW 03:52:47 21° SW
Cosmos 1536 2.8 03:47:37 25° SSW 03:49:53 72° W 03:53:57 10° N
Okean 2 3.6 03:47:19 10° N 03:51:27 73° E 03:55:30 10° SSE
Cosmos 1605 Rocket 4.0 03:47:06 19° SSW 03:51:45 78° W 03:58:05 10° N
Cosmos 1356 3.4 03:50:06 24° S 03:52:06 85° E 03:55:40 10° NNE
Cosmos 1844 Rocket 3.4 03:49:51 19° WSW 03:53:38 43° WNW 03:59:02 10° NNE
Meteor 1-19 Rocket 4.4 03:47:56 10° NNW 03:53:40 60° W 03:58:32 15° S
NOSS 2-2 (D) 3.9 03:52:27 22° SW 03:55:04 62° NW 04:00:00 10° NNE
Cosmos 2123 Rocket 4.2 03:49:12 10° NNW 03:55:23 57° W 04:00:32 15° SSW
Cosmos 1140 Rocket 3.9 03:50:59 10° NNW 03:55:48 42° WSW 03:59:21 17° SSW
Resurs 1-4 Rocket 2.6 03:52:48 10° NNE 03:58:04 59° E 04:03:07 11° S
ATLAS 2A CENTAUR R/B 4.3 03:54:19 18° SSW 03:59:04 26° S 04:21:47 10° SE
SL-16 R/B 2.6 03:52:54 10° SSE 03:59:09 88° ENE 04:05:24 10° NNW
Gbstr 26 Del rocket 3.4 03:56:03 14° W 03:59:14 50° NNW 04:02:53 10° NE
EO 1 Del DPAF 3.3 03:59:45 10° SSE 04:03:38 86° ENE 04:07:33 10° NNW
ADEOS 3.8 04:00:11 10° N 04:05:18 56° WNW 04:09:11 17° SW
Cosmos 1544 Rocket 3.5 04:02:40 18° SSW 04:05:53 72° W 04:10:17 10° N
COSMOS 2487 3.7 04:04:57 10° NW 04:08:01 26° W 04:09:22 21° SW
Abrixas rocket 3.7 04:06:18 10° WNW 04:09:28 37° N 04:12:37 10° ENE
NOSS 2-2 (C) 4.3 04:06:30 16° WSW 04:09:37 46° NW 04:14:28 10° NNE
Cosmos 1844 4.5 04:07:06 16° WSW 04:11:21 42° WNW 04:16:50 10° NNE
ATLAS 5 CENTAUR R/B 2.5 04:06:09 10° NW 04:12:02 57° WSW 04:18:18 10° SSE
Cosmos 1633 3.2 04:10:16 20° SW 04:12:21 41° WNW 04:15:50 10° N
BREEZE-M DEB (TANK) 3.7 04:08:17 10° WNW 04:14:32 39° N 04:17:05 10° ENE
USA 161 2.9 04:20:42 18° SW 04:21:45 22° W 04:24:11 10° NW
USA 129 3.8 04:20:38 10° SE 04:22:27 27° ENE 04:24:13 10° N
Cosmos 2278 Rocket 2.7 04:18:39 15° SW 04:23:14 49° WNW 04:28:45 10° NNE
Cosmos 2297 3.7 04:20:31 13° SSW 04:25:36 86° WNW 04:31:21 10° NNE
Cosmos 2173 Rocket 4.1 04:20:33 10° S 04:26:38 80° E 04:32:51 10° N
Cosmos 1892 Rocket 4.3 04:24:46 10° NNW 04:28:40 33° W 04:32:13 12° SSW
Cosmos 1400 Rocket 3.6 04:26:03 15° SW 04:28:51 35° WNW 04:32:32 10° N
CZ-2C R/B 4.3 04:25:21 10° SSE 04:30:03 64° ENE 04:34:48 10° N
NOSS 5 (C) 4.3 04:28:01 15° SSW 04:30:37 75° SE 04:33:44 10° NE
Cosmos 1461 4.2 04:26:38 12° WSW 04:30:40 36° NW 04:34:56 10° NNE
CZ-2D R/B 3.6 04:31:54 10° NNE 04:35:55 73° ESE 04:39:58 10° S
Cosmos 1459 Rocket 4.1 04:32:39 10° S 04:39:01 81° W 04:45:20 10° N
Meteor 1-5 Rocket 4.5 04:34:00 10° SSW 04:39:45 58° WNW 04:45:22 10° N
Cosmos 2082 Rocket 2.2 04:34:48 10° NNW 04:40:28 63° WSW 04:46:05 10° S
CZ-4B R/B 4.0 04:35:31 10° NNE 04:41:04 53° E 04:46:34 10° S
Cosmos 1802 Rocket 4.0 04:36:06 10° S 04:42:15 89° W 04:48:26 10° N
BREEZE-M DEB (TANK) 2.7 04:42:39 11° SW 04:45:01 34° SSE 04:48:04 10° E
USA 234 4.1 04:43:37 10° S 04:48:57 26° SW 04:54:18 10° WNW
Cosmos 2100 Rocket 4.2 04:43:57 10° SSW 04:50:09 63° W 04:56:28 10° N
IRS-1D 4.2 04:46:12 10° N 04:50:52 38° WNW 04:55:27 10° SW
APEX 3.4 04:53:15 10° SW 04:56:08 44° WNW 04:59:39 10° NNE
Cosmos 1602 Rocket 4.0 04:54:35 10° NNW 04:58:43 44° W 05:02:51 10° SSW
CENTAUR R/B 4.4 04:53:55 10° WNW 04:58:46 17° WSW 05:03:42 10° SW
Cosmos 1515 3.6 04:55:07 10° N 04:58:57 79° W 05:02:46 10° S
Cosmos 1315 Rocket 4.0 04:55:47 10° SW 04:59:18 28° WNW 05:02:49 10° NNW
Cosmos 1743 4.0 04:55:46 10° SSE 04:59:22 41° E 05:03:00 10° NNE
SME Rocket 4.1 04:57:10 10° SSW 05:00:19 25° W 05:03:54 10° NW
Cosmos 1500 3.4 04:57:05 10° S 05:00:58 81° E 05:04:53 10° N
